This is the latest recevied weather packets stored in our database for station/object OE3PDB-3. If no packets are shown the sender has not sent any weather packets the latest 10 day(s).
| Time | Temp. | Humidity | Pressure | Rain* | Wind** | Luminosity | Snow |
|---|---|---|---|---|---|---|---|
| 1777292455 | 19.44° C | 34% | 1020.5 hPa | 0 mm | - | - | - |
| 1777291855 | 18.33° C | 36% | 1020.7 hPa | 0 mm | - | - | - |
| 1777291255 | 17.78° C | 36% | 1020.7 hPa | 0 mm | - | - | - |
| 1777290655 | 17.22° C | 37% | 1020.8 hPa | 0 mm | - | - | - |
| 1777289455 | 16.11° C | 38% | 1020.9 hPa | 0 mm | - | - | - |
| 1777288855 | 16.11° C | 39% | 1020.9 hPa | 0 mm | - | - | - |
| 1777288255 | 16.11° C | 38% | 1021.1 hPa | 0 mm | - | - | - |
| 1777287655 | 16.11° C | 39% | 1021.1 hPa | 0 mm | - | - | - |
| 1777287055 | 16.11° C | 39% | 1021.1 hPa | 0 mm | - | - | - |
| 1777286455 | 15.56° C | 39% | 1021.2 hPa | 0 mm | - | - | - |
| 1777285855 | 15.56° C | 38% | 1021.5 hPa | 0 mm | - | - | - |
| 1777285255 | 15.56° C | 37% | 1021.7 hPa | 0 mm | - | - | - |
| 1777284655 | 15.56° C | 37% | 1021.7 hPa | 0 mm | - | - | - |
| 1777284055 | 15.56° C | 37% | 1021.6 hPa | 0 mm | - | - | - |
| 1777282255 | 15.56° C | 37% | 1021.9 hPa | 0 mm | - | - | - |
| 1777281655 | 16.11° C | 37% | 1022 hPa | 0 mm | - | - | - |
| 1777281055 | 15.56° C | 37% | 1022.1 hPa | 0 mm | - | - | - |
| 1777279855 | 15.56° C | 37% | 1022.2 hPa | 0 mm | - | - | - |
| 1777279255 | 15.56° C | 36% | 1022.2 hPa | 0 mm | - | - | - |
| 1777278655 | 15.56° C | 36% | 1022.2 hPa | 0 mm | - | - | - |
| 1777278055 | 15.56° C | 36% | 1022.1 hPa | 0 mm | - | - | - |
| 1777277455 | 16.11° C | 35% | 1022.1 hPa | 0 mm | - | - | - |
| 1777276855 | 16.11° C | 35% | 1022.1 hPa | 0 mm | - | - | - |
| 1777276255 | 16.67° C | 35% | 1022.1 hPa | 0 mm | - | - | - |
| 1777275656 | 16.67° C | 35% | 1022 hPa | 0 mm | - | - | - |
* Rain latest hour (hover to see other rain measurements)
** Current wind speed in m/s (hover to see current wind gust speed)